Regional Weather Roundup
Issued by NWS Midland/Odessa, TX

Home | Current Version | Previous Version | Text Only | Print | Product List | Glossary On
Versions: 1 2 3 4 5 6 7 8 9 10 11 12 13 14 15 16 17 18 19 20 21 22 23 24 25 26 27 28 29 30 31 32 33 34 35 36 37 38 39 40 41 42 43 44 45 46 47 48 49 50
000
ASUS44 KMAF 241810
RWRMAF
MIDLAND AREA WEATHER ROUNDUP
NATIONAL WEATHER SERVICE MIDLAND TX
100 PM CDT SUN SEP 24 2017

...IN SOUTHWEST TEXAS AND SOUTHEAST NEW MEXICO...

CITY           SKY/WX    TMP DP  RH WIND       PRES   REMARKS
ALPINE         MOSUNNY   79  61  53 S14       30.00F
ANDREWS        CLOUDY    76  68  76 S9        29.91F
ARTESIA        SUNNY     77  64  65 SE12      29.89F
BIG SPRING     CLOUDY    74  66  76 S5        29.94S
CARLSBAD       SUNNY     77  67  71 E8        29.88F
DRYDEN           N/A     76  70  82 SE15G21   29.87S
FORT STOCKTON  NOT AVBL
GUAD PASS      NOT AVBL
HOBBS          MOSUNNY   77  64  65 S13       29.92F
MARFA          NOT AVBL
MIDLAND AIRPK  CLOUDY    78  67  67 S15       29.91F
MIDLAND INTL   CLOUDY    79  66  64 S18G24    29.90S
ODESSA         CLOUDY    78  68  71 S17       29.91S
PECOS          CLOUDY    82  66  58 S7        29.85F
PRESIDIO       MOCLDY    85  64  48 SE5       29.87S
SEMINOLE       PTSUNNY   75  67  75 S8        29.93S
SNYDER         CLOUDY    73  67  81 S15G21    29.93F
WINK           PTSUNNY   82  67  60 S10       29.86S
$$
...OTHER STATIONS IN TEXAS...

CITY           SKY/WX    TMP DP  RH WIND       PRES   REMARKS
ABILENE        CLOUDY    75  70  84 SE13      29.93S
AMARILLO       NOT AVBL
AUSTIN         MOSUNNY   89  72  56 SE12      29.88F
BROWNSVILLE    MOSUNNY   91  74  57 S13G26    29.81F HX 100
CORPUS CHRISTI PTSUNNY   90  72  55 SE15G24   29.84F
DALLAS FTW     MOSUNNY   89  67  47 S16       29.92F
DEL RIO        CLOUDY    81  70  69 SE13      29.84F
EL PASO        MOSUNNY   81  44  27 SW12G20   29.90F
HOUSTON INT    MOSUNNY   88  71  57 E12       29.90F
LUBBOCK        CLOUDY    72  66  81 S16       29.92F
SAN ANGELO     CLOUDY    81  61  50 S13       29.90F
SAN ANTONIO    PTSUNNY   87  68  52 E10       29.88F
WACO           PTSUNNY   89  67  47 S10       29.91F
WICHITA FALLS  NOT AVBL
$$
...OTHER LOCATIONS IN NEW MEXICO...

CITY           SKY/WX    TMP DP  RH WIND       PRES   REMARKS
ALAMOGORDO     PTSUNNY   77  41  27 W10       29.93F
ALBUQUERQUE    SUNNY     66  27  23 W9        29.99F
CANNON AFB     MOSUNNY   73  59  61 SW6       29.95S
CLOVIS         SUNNY     74  60  61 S12       29.94F
HOLLOMAN AFB   MOSUNNY   83  42  23 W5        29.94S
ROSWELL        SUNNY     78  61  55 SE9       29.89F
RUIDOSO        SUNNY     66  37  34 SW16G26   30.06R
SANTA FE       SUNNY     63  33  32 W17       30.01S
TRUTH OR CONSE SUNNY     75  35  23 VRB6      29.93F
TUCUMCARI      MOSUNNY   78  57  48 S9        29.87S
$$




USA.gov is the U.S. government's official web portal to all federal, state and local government web resources and services.